period_start,C,m1,H,J0,J1,J2,J3,J4,J5,JA,JB,JC,JD,JJ,JK,JN,#
2018-04-14 00:00:24,0.14,5.39,0.00,27.41,29.63,32.43,12.18,45.30,1013.69,2015.17,2081.51,2113.64,2414.72,536.90,524.19,0.01,0000 0000 0000 0000 000002
2018-04-14 00:05:26,0.20,0.00,0.00,27.42,29.67,32.45,13.73,49.44,1013.71,2018.02,3402.83,3076.56,3542.32,600.10,585.65,0.03,0000 0000 0000 0000 000000
2018-04-14 00:10:27,0.20,0.00,0.00,27.47,29.71,32.49,13.74,49.37,1013.71,2018.00,3398.40,3074.08,3539.05,600.27,585.75,0.08,0000 0000 0000 0000 000000
2018-04-14 00:15:28,0.20,0.01,0.00,27.57,29.74,32.54,13.66,49.15,1013.72,2018.00,3394.77,3071.80,3535.99,599.88,585.19,0.13,0000 0000 0000 0000 000000
2018-04-14 00:20:29,0.19,0.02,0.00,27.65,29.77,32.57,13.66,48.98,1013.70,2017.98,3391.29,3069.55,3532.99,600.18,585.29,0.18,0000 0000 0000 0000 000000
2018-04-14 00:25:31,0.16,0.03,0.00,27.68,29.81,32.61,13.74,48.94,1013.69,2017.79,3387.98,3067.24,3530.10,600.65,585.88,0.23,0000 0000 0000 0000 000000
2018-04-14 00:30:32,0.12,0.03,0.00,27.73,29.86,32.65,13.65,49.03,1013.68,2017.23,3384.47,3064.82,3527.21,600.01,585.08,0.28,0000 0000 0000 0000 000000
2018-04-14 00:35:33,0.14,0.04,0.00,27.79,29.90,32.72,13.57,49.09,1013.62,2017.04,3380.97,3062.39,3524.26,599.87,584.66,0.33,0000 0000 0000 0000 000000
2018-04-14 00:40:34,0.16,0.05,0.00,27.82,29.94,32.75,13.74,49.13,1013.33,2017.00,3377.51,3059.95,3521.36,599.91,584.47,0.38,0000 0000 0000 0000 000000
2018-04-14 00:45:35,0.15,0.06,0.00,27.86,29.99,32.78,13.73,49.11,1013.21,2017.00,3374.10,3057.51,3518.54,600.26,584.63,0.43,0000 0000 0000 0000 000000
2018-04-14 00:50:37,0.15,0.06,0.00,27.88,30.03,32.85,13.58,48.94,1013.21,2016.98,3370.69,3055.14,3515.59,600.10,584.50,0.48,0000 0000 0000 0000 000000
2018-04-14 00:55:38,0.14,0.07,0.00,27.90,30.07,32.89,13.61,48.87,1013.21,2016.88,3367.38,3052.79,3512.81,599.80,584.10,0.53,0000 0000 0000 0000 000000
2018-04-14 01:00:40,0.10,0.08,0.00,27.94,30.12,32.94,13.64,48.95,1013.20,2016.43,3364.05,3050.39,3510.07,599.90,584.20,0.58,0000 0000 0000 0000 000000
2018-04-14 01:05:41,0.13,0.08,0.00,27.93,30.16,32.99,13.60,49.07,1013.20,2016.04,3360.71,3048.10,3507.19,599.87,584.17,0.63,0000 0000 0000 0000 000000
2018-04-14 01:10:41,0.15,0.09,0.00,27.96,30.20,33.00,13.62,49.17,1013.20,2016.00,3357.40,3045.77,3504.39,599.70,584.00,0.68,0000 0000 0000 0000 000000
2018-04-14 01:15:43,0.15,0.10,0.00,27.99,30.24,33.07,13.67,48.98,1013.20,2016.00,3354.07,3043.39,3501.54,599.86,584.17,0.73,0000 0000 0000 0000 000000
2018-04-14 01:20:44,0.16,0.11,0.00,28.06,30.28,33.09,13.57,48.77,1013.19,2015.97,3350.66,3040.98,3498.69,599.82,583.86,0.78,0000 0000 0000 0000 000000
2018-04-14 01:25:45,0.13,0.11,0.00,28.14,30.32,33.13,13.55,48.74,1013.19,2015.78,3347.28,3038.65,3495.97,599.75,583.58,0.83,0000 0000 0000 0000 000000
2018-04-14 01:30:47,0.10,0.12,0.00,28.22,30.36,33.15,13.69,48.69,1013.13,2015.16,3343.88,3036.17,3493.09,600.34,584.10,0.88,0000 0000 0000 0000 000000
2018-04-14 01:35:48,0.15,0.13,0.00,28.27,30.40,33.20,13.62,48.79,1012.84,2015.01,3340.49,3033.76,3490.18,600.17,583.51,0.93,0000 0000 0000 0000 000000
2018-04-14 01:40:49,0.15,0.13,0.00,28.32,30.44,33.25,13.50,48.72,1012.72,2014.98,3337.07,3031.38,3487.38,599.85,583.12,0.98,0000 0000 0000 0000 000000
2018-04-14 01:45:51,0.15,0.14,0.00,28.38,30.49,33.29,13.58,48.66,1012.72,2014.88,3333.55,3028.87,3484.44,599.98,583.20,1.03,0000 0000 0000 0000 000000
2018-04-14 01:50:52,0.12,0.15,0.00,28.43,30.53,33.32,13.53,48.93,1012.71,2014.46,3330.04,3026.37,3481.51,599.99,583.05,1.08,0000 0000 0000 0000 000000
2018-04-14 01:55:53,0.13,0.15,0.00,28.46,30.57,33.36,13.55,48.72,1012.71,2014.14,3326.54,3023.93,3478.57,599.96,582.95,1.13,0000 0000 0000 0000 000000
2018-04-14 02:00:55,0.15,0.16,0.00,28.51,30.62,33.41,13.58,48.84,1012.71,2014.02,3323.10,3021.38,3475.57,599.78,582.69,1.18,0000 0000 0000 0000 000000
2018-04-14 02:05:56,0.16,0.17,0.00,28.54,30.66,33.45,13.51,48.74,1012.71,2014.00,3319.71,3018.97,3472.69,599.78,582.69,1.23,0000 0000 0000 0000 000000
2018-04-14 02:10:58,0.16,0.18,0.00,28.59,30.71,33.51,13.58,48.77,1012.71,2013.99,3316.28,3016.49,3469.84,599.93,582.63,1.28,0000 0000 0000 0000 000000
2018-04-14 02:15:59,0.13,0.19,0.00,28.63,30.76,33.55,13.50,48.60,1012.72,2013.81,3312.82,3014.02,3466.83,599.95,582.64,1.33,0000 0000 0000 0000 000000
2018-04-14 02:21:00,0.11,0.19,0.00,28.68,30.80,33.60,13.56,48.75,1012.72,2013.21,3309.34,3011.49,3463.88,599.73,582.30,1.38,0000 0000 0000 0000 000000
2018-04-14 02:26:01,0.15,0.20,0.00,28.75,30.85,33.62,13.52,48.65,1012.71,2013.01,3305.94,3009.09,3460.98,599.83,582.25,1.43,0000 0000 0000 0000 000000
2018-04-14 02:31:03,0.15,0.21,0.00,28.81,30.89,33.68,13.50,48.60,1012.71,2013.00,3302.52,3006.80,3458.11,599.97,582.11,1.48,0000 0000 0000 0000 000000
2018-04-14 02:36:04,0.15,0.22,0.00,28.87,30.94,33.71,13.49,48.53,1012.71,2012.98,3299.10,3004.41,3455.37,599.77,581.98,1.53,0000 0000 0000 0000 000000
2018-04-14 02:41:05,0.13,0.22,0.00,28.91,30.99,33.78,13.57,48.59,1012.71,2012.75,3295.61,3001.91,3452.49,599.95,582.08,1.58,0000 0000 0000 0000 000000
2018-04-14 02:46:07,0.12,0.23,0.00,28.98,31.04,33.82,13.57,48.65,1012.71,2012.18,3292.06,2999.43,3449.57,600.00,581.95,1.63,0000 0000 0000 0000 000000
2018-04-14 02:51:08,0.15,0.24,0.00,29.02,31.08,33.86,13.53,48.58,1012.71,2012.01,3288.56,2996.98,3446.68,599.97,581.94,1.68,0000 0000 0000 0000 000000
2018-04-14 02:56:09,0.16,0.25,0.00,29.06,31.13,33.91,13.51,48.58,1012.71,2012.00,3285.18,2994.51,3443.86,599.99,581.83,1.73,0000 0000 0000 0000 000000
2018-04-14 03:01:11,0.16,0.25,0.00,29.11,31.18,33.96,13.56,48.67,1012.67,2011.99,3281.74,2992.10,3441.06,599.96,581.67,1.78,0000 0000 0000 0000 000000
2018-04-14 03:06:12,0.13,0.26,0.00,29.15,31.23,34.00,13.61,48.65,1012.55,2011.78,3278.35,2989.65,3438.18,600.47,581.86,1.83,0000 0000 0000 0000 000000
2018-04-14 03:11:13,0.11,0.27,0.00,29.14,31.27,34.04,13.60,48.70,1012.38,2011.13,3274.84,2987.16,3435.22,600.00,581.45,1.88,0000 0000 0000 0000 000000
2018-04-14 03:16:14,0.15,0.27,0.00,29.17,31.32,34.08,13.56,48.77,1012.24,2011.00,3271.50,2984.76,3432.46,599.92,581.28,1.94,0000 0000 0000 0000 000000
2018-04-14 03:21:16,0.16,0.28,0.00,29.20,31.36,34.14,13.53,48.78,1012.23,2011.00,3268.04,2982.32,3429.56,599.54,580.81,1.99,0000 0000 0000 0000 000000
2018-04-14 03:26:17,0.16,0.29,0.00,29.21,31.40,34.19,13.56,48.67,1012.22,2010.97,3264.63,2979.90,3426.78,600.20,581.45,2.04,0000 0000 0000 0000 000000
2018-04-14 03:31:18,0.12,0.30,0.00,29.18,31.44,34.24,13.54,48.70,1012.23,2010.66,3261.29,2977.43,3423.87,599.85,581.27,2.09,0000 0000 0000 0000 000000
2018-04-14 03:36:19,0.12,0.30,0.00,29.21,31.48,34.27,13.53,48.62,1012.24,2010.17,3257.89,2975.03,3421.03,599.77,581.03,2.14,0000 0000 0000 0000 000000
2018-04-14 03:41:21,0.14,0.31,0.00,29.26,31.52,34.33,13.52,48.58,1012.26,2010.03,3254.58,2972.66,3418.30,599.95,581.34,2.19,0000 0000 0000 0000 000000
2018-04-14 03:46:22,0.16,0.32,0.00,29.28,31.56,34.35,13.51,48.52,1012.24,2010.00,3251.16,2970.25,3415.53,600.03,581.12,2.24,0000 0000 0000 0000 000000
2018-04-14 03:51:23,0.16,0.33,0.00,29.28,31.59,34.40,13.56,48.58,1012.23,2010.00,3247.76,2967.80,3412.67,599.91,581.06,2.29,0000 0000 0000 0000 000000
2018-04-14 03:56:25,0.15,0.34,0.00,29.33,31.63,34.42,13.49,48.46,1012.23,2009.94,3244.31,2965.36,3409.82,600.04,581.08,2.34,0000 0000 0000 0000 000000
2018-04-14 04:01:26,0.12,0.34,0.00,29.36,31.66,34.46,13.48,48.37,1012.22,2009.56,3240.86,2962.95,3407.05,599.82,580.79,2.39,0000 0000 0000 0000 000000
2018-04-14 04:06:27,0.12,0.35,0.00,29.40,31.70,34.49,13.51,48.38,1012.20,2009.15,3237.43,2960.57,3404.27,600.11,581.09,2.44,0000 0000 0000 0000 000000
2018-04-14 04:11:28,0.16,0.36,0.00,29.39,31.74,34.52,13.58,48.53,1012.14,2009.01,3234.07,2958.18,3401.46,600.27,581.14,2.49,0000 0000 0000 0000 000000
2018-04-14 04:16:30,0.16,0.36,0.00,29.43,31.77,34.55,13.53,48.58,1012.20,2009.00,3230.64,2955.74,3398.63,600.10,580.93,2.54,0000 0000 0000 0000 000000
2018-04-14 04:21:31,0.16,0.37,0.00,29.48,31.81,34.59,13.55,48.58,1012.05,2009.00,3227.24,2953.36,3395.89,599.98,580.62,2.59,0000 0000 0000 0000 000000
2018-04-14 04:26:32,0.16,0.38,0.00,29.51,31.84,34.61,13.51,48.65,1011.78,2008.96,3223.93,2951.03,3393.11,600.19,580.61,2.64,0000 0000 0000 0000 000000
2018-04-14 04:31:33,0.12,0.39,0.00,29.52,31.87,34.65,13.53,48.64,1011.78,2008.72,3220.50,2948.58,3390.45,599.62,580.05,2.69,0000 0000 0000 0000 000000
2018-04-14 04:36:34,0.12,0.39,0.00,29.50,31.91,34.68,13.51,48.52,1011.75,2008.27,3217.10,2946.20,3387.70,599.86,580.30,2.74,0000 0000 0000 0000 000000
2018-04-14 04:41:36,0.15,0.40,0.00,29.55,31.94,34.72,13.61,48.42,1011.73,2008.03,3213.69,2943.87,3384.94,600.38,580.65,2.79,0000 0000 0000 0000 000000
2018-04-14 04:46:37,0.15,0.41,0.00,29.58,31.97,34.76,13.54,48.52,1011.73,2008.00,3210.31,2941.50,3382.14,600.13,580.33,2.84,0000 0000 0000 0000 000000
2018-04-14 04:51:38,0.17,0.42,0.00,29.58,32.01,34.80,13.50,48.52,1011.73,2008.00,3206.86,2939.10,3379.35,600.25,580.53,2.89,0000 0000 0000 0000 000000
2018-04-14 04:56:39,0.16,0.43,0.00,29.58,32.03,34.82,13.53,48.52,1011.73,2008.00,3203.41,2936.68,3376.57,600.06,580.33,2.94,0000 0000 0000 0000 000000
2018-04-14 05:01:41,0.16,0.43,0.00,29.62,32.06,34.84,13.51,48.49,1011.73,2007.95,3199.95,2934.25,3373.77,599.93,579.97,2.99,0000 0000 0000 0000 000000
2018-04-14 05:06:42,0.14,0.44,0.00,29.66,32.09,34.86,13.49,48.49,1011.73,2007.70,3196.63,2931.83,3370.97,599.80,580.07,3.04,0000 0000 0000 0000 000000
2018-04-14 05:11:43,0.12,0.45,0.00,29.66,32.12,34.87,13.53,48.48,1011.73,2007.28,3193.29,2929.45,3368.19,600.07,580.13,3.09,0000 0000 0000 0000 000000
2018-04-14 05:16:44,0.15,0.46,0.00,29.63,32.15,34.92,13.54,48.50,1011.73,2007.05,3189.83,2927.06,3365.39,599.85,580.04,3.14,0000 0000 0000 0000 000000
2018-04-14 05:21:45,0.15,0.46,0.00,29.67,32.17,34.95,13.55,48.32,1011.73,2007.02,3186.49,2924.73,3362.76,600.11,580.26,3.19,0000 0000 0000 0000 000000
2018-04-14 05:26:46,0.15,0.47,0.00,29.67,32.20,34.97,13.48,48.42,1011.73,2007.00,3183.25,2922.47,3360.11,599.72,579.93,3.24,0000 0000 0000 0000 000000
2018-04-14 05:31:47,0.16,0.48,0.00,29.65,32.23,34.99,13.46,48.33,1011.73,2007.00,3179.92,2920.10,3357.36,599.87,579.99,3.29,0000 0000 0000 0000 000000
2018-04-14 05:36:49,0.16,0.49,0.00,29.67,32.25,35.01,13.54,48.52,1011.72,2007.00,3176.52,2917.67,3354.57,600.03,580.12,3.34,0000 0000 0000 0000 000000
2018-04-14 05:41:50,0.16,0.50,0.00,29.67,32.28,35.04,13.60,48.67,1011.64,2006.97,3173.11,2915.31,3351.86,599.98,580.00,3.39,0000 0000 0000 0000 000000
2018-04-14 05:46:52,0.14,0.50,0.00,29.64,32.30,35.07,13.51,48.57,1011.27,2006.86,3169.76,2912.98,3349.15,600.11,580.02,3.44,0000 0000 0000 0000 000000
2018-04-14 05:51:53,0.14,0.51,0.00,29.61,32.32,35.07,13.54,48.50,1011.25,2006.66,3166.33,2910.57,3346.40,599.85,579.86,3.49,0000 0000 0000 0000 000000
2018-04-14 05:56:54,0.13,0.52,0.00,29.65,32.35,35.10,13.53,48.42,1011.22,2006.31,3163.01,2908.22,3343.73,599.84,579.70,3.54,0000 0000 0000 0000 000000
2018-04-14 06:01:56,0.14,0.53,0.00,29.66,32.36,35.12,13.51,48.63,1011.05,2006.08,3159.79,2905.95,3341.08,599.66,579.46,3.59,0000 0000 0000 0000 000000
2018-04-14 06:06:57,0.16,0.53,0.00,29.63,32.37,35.13,13.54,48.66,1010.83,2006.07,3156.64,2903.73,3338.46,599.94,579.69,3.64,0000 0000 0000 0000 000000
2018-04-14 06:11:58,0.15,0.54,0.00,29.59,32.40,35.15,13.58,48.61,1010.89,2006.02,3153.44,2901.48,3335.85,600.27,580.05,3.69,0000 0000 0000 0000 000000
2018-04-14 06:17:00,0.15,0.55,0.00,29.63,32.41,35.17,13.52,48.62,1010.84,2006.01,3150.27,2899.29,3333.29,599.72,579.42,3.74,0000 0000 0000 0000 000000
2018-04-14 06:22:01,0.16,0.56,0.00,29.60,32.42,35.17,13.51,48.82,1010.76,2006.00,3147.04,2897.02,3330.65,599.81,579.53,3.79,0000 0000 0000 0000 000000
2018-04-14 06:27:02,0.16,0.57,0.00,29.60,32.43,35.19,13.59,48.88,1010.76,2006.00,3143.78,2894.77,3328.05,600.24,579.94,3.84,0000 0000 0000 0000 000000
2018-04-14 06:32:03,0.16,0.57,0.00,29.62,32.45,35.19,13.47,48.79,1010.76,2006.00,3140.50,2892.46,3325.48,599.88,579.51,3.89,0000 0000 0000 0000 000000
2018-04-14 06:37:05,0.15,0.58,0.00,29.60,32.45,35.19,13.52,48.81,1010.76,2005.99,3137.39,2890.29,3322.97,599.52,579.28,3.94,0000 0000 0000 0000 000000
2018-04-14 06:42:06,0.15,0.59,0.00,29.61,32.47,35.20,13.52,48.75,1010.76,2005.99,3134.39,2888.09,3320.40,599.87,579.54,3.99,0000 0000 0000 0000 000000
2018-04-14 06:47:07,0.15,0.60,0.00,29.65,32.47,35.20,13.57,48.83,1010.76,2005.99,3131.33,2885.93,3317.86,600.04,579.58,4.04,0000 0000 0000 0000 000000
2018-04-14 06:52:09,0.15,0.61,0.00,29.65,32.49,35.20,13.52,48.75,1010.75,2005.97,3128.15,2883.78,3315.35,600.15,579.73,4.09,0000 0000 0000 0000 000000
2018-04-14 06:57:10,0.14,0.61,0.00,29.67,32.50,35.20,13.59,48.77,1010.75,2005.92,3125.05,2881.60,3312.81,600.42,579.90,4.14,0000 0000 0000 0000 000000
2018-04-14 07:02:12,0.13,0.62,0.00,29.72,32.50,35.20,13.46,48.70,1010.74,2005.76,3121.86,2879.41,3310.22,599.80,579.21,4.19,0000 0000 0000 0000 000000
2018-04-14 07:07:13,0.12,0.63,0.00,29.70,32.52,35.21,13.50,48.72,1010.70,2005.34,3118.72,2877.30,3307.57,600.11,579.56,4.24,0000 0000 0000 0000 000000
2018-04-14 07:12:15,0.14,0.63,0.00,29.70,32.52,35.21,13.56,48.79,1010.73,2005.25,3115.59,2875.13,3305.02,600.12,579.48,4.30,0000 0000 0000 0000 000000
2018-04-14 07:17:16,0.14,0.64,0.00,29.72,32.55,35.24,13.58,48.83,1010.75,2005.13,3112.50,2872.92,3302.50,600.45,579.92,4.35,0000 0000 0000 0000 000000
2018-04-14 07:22:18,0.14,0.65,0.00,29.72,32.55,35.25,13.56,48.81,1010.76,2005.03,3109.42,2870.75,3299.96,599.98,579.38,4.40,0000 0000 0000 0000 000000
2018-04-14 07:27:19,0.15,0.66,0.00,29.68,32.56,35.26,13.57,48.86,1010.76,2005.02,3106.29,2868.61,3297.47,600.11,579.53,4.45,0000 0000 0000 0000 000000
2018-04-14 07:32:20,0.15,0.66,0.00,29.70,32.57,35.27,13.60,48.80,1010.73,2005.00,3103.09,2866.44,3294.92,600.24,579.65,4.50,0000 0000 0000 0000 000000
2018-04-14 07:37:21,0.15,0.67,0.00,29.72,32.57,35.28,13.52,48.70,1010.71,2005.00,3099.98,2864.29,3292.40,600.16,579.40,4.55,0000 0000 0000 0000 000000
2018-04-14 07:42:22,0.15,0.68,0.00,29.77,32.59,35.29,13.44,48.55,1010.72,2005.00,3096.87,2862.15,3289.89,599.72,579.10,4.60,0000 0000 0000 0000 000000
2018-04-14 07:47:24,0.15,0.69,0.00,29.77,32.60,35.29,13.56,48.71,1010.76,2005.00,3093.85,2859.98,3287.38,600.15,579.51,4.65,0000 0000 0000 0000 000000
2018-04-14 07:52:25,0.15,0.70,0.00,29.80,32.61,35.29,13.54,48.78,1010.76,2005.00,3090.73,2857.86,3284.87,600.07,579.41,4.70,0000 0000 0000 0000 000000
2018-04-14 07:57:26,0.15,0.70,0.00,29.86,32.62,35.30,13.49,48.64,1010.76,2005.00,3087.71,2855.72,3282.37,599.96,579.09,4.75,0000 0000 0000 0000 000000
2018-04-14 08:02:28,0.15,0.71,0.00,29.90,32.63,35.30,13.46,48.64,1010.76,2005.00,3084.62,2853.54,3279.91,600.18,579.27,4.80,0000 0000 0000 0000 000000
2018-04-14 08:07:29,0.16,0.72,0.00,29.91,32.65,35.31,13.51,48.73,1010.76,2005.00,3081.46,2851.32,3277.35,599.90,578.93,4.85,0000 0000 0000 0000 000000
2018-04-14 08:12:30,0.15,0.73,0.00,29.95,32.66,35.33,13.46,48.85,1010.76,2004.92,3078.36,2849.14,3274.78,600.04,579.06,4.90,0000 0000 0000 0000 000000
2018-04-14 08:17:31,0.14,0.73,0.00,29.99,32.67,35.36,13.48,48.61,1010.76,2004.78,3075.20,2846.95,3272.24,599.70,578.71,4.95,0000 0000 0000 0000 000000
2018-04-14 08:22:32,0.12,0.74,0.00,30.03,32.70,35.38,13.47,48.51,1010.76,2004.49,3072.05,2844.67,3269.66,600.11,578.96,5.00,0000 0000 0000 0000 000000
2018-04-14 08:27:34,0.13,0.75,0.00,30.01,32.71,35.38,13.57,48.57,1010.76,2004.12,3068.94,2842.38,3267.03,600.26,579.15,5.05,0000 0000 0000 0000 000000
2018-04-14 08:32:35,0.15,0.76,0.00,30.07,32.72,35.41,13.55,48.49,1010.76,2004.02,3065.81,2840.17,3264.49,600.32,579.04,5.10,0000 0000 0000 0000 000000
2018-04-14 08:37:36,0.16,0.76,0.00,30.11,32.75,35.44,13.46,48.58,1010.76,2004.04,3062.66,2838.00,3262.11,599.93,578.59,5.15,0000 0000 0000 0000 000000
2018-04-14 08:42:38,0.15,0.77,0.00,30.08,32.77,35.46,13.54,48.51,1010.75,2004.02,3059.49,2835.77,3259.55,600.24,578.95,5.20,0000 0000 0000 0000 000000
2018-04-14 08:47:39,0.16,0.78,0.00,30.11,32.79,35.48,13.59,48.63,1010.76,2004.00,3056.38,2833.58,3257.03,600.22,578.99,5.25,0000 0000 0000 0000 000000
2018-04-14 08:52:40,0.16,0.79,0.00,30.14,32.80,35.51,13.50,48.45,1010.76,2004.00,3053.23,2831.36,3254.43,599.94,578.59,5.30,0000 0000 0000 0000 000000
2018-04-14 08:57:41,0.15,0.80,0.00,30.15,32.82,35.52,13.52,48.52,1010.75,2004.00,3050.22,2829.22,3251.93,599.92,578.69,5.35,0000 0000 0000 0000 000000
2018-04-14 09:02:42,0.15,0.80,0.00,30.14,32.84,35.54,13.56,48.53,1010.72,2004.00,3047.21,2827.10,3249.48,600.01,578.57,5.40,0000 0000 0000 0000 000000
2018-04-14 09:07:43,0.15,0.81,0.00,30.18,32.86,35.57,13.47,48.60,1010.74,2003.96,3044.14,2824.90,3246.97,600.05,578.60,5.45,0000 0000 0000 0000 000000
2018-04-14 09:12:45,0.14,0.82,0.00,30.18,32.88,35.58,13.52,48.70,1010.71,2003.89,3041.20,2822.79,3244.51,600.00,578.60,5.50,0000 0000 0000 0000 000000
2018-04-14 09:17:46,0.13,0.83,0.00,30.20,32.90,35.61,13.54,48.74,1010.58,2003.74,3038.25,2820.73,3242.12,600.04,578.45,5.55,0000 0000 0000 0000 000000
2018-04-14 09:22:47,0.11,0.83,0.00,30.22,32.91,35.62,13.50,48.58,1010.68,2003.35,3035.28,2818.66,3239.68,599.80,578.18,5.60,0000 0000 0000 0000 000000
2018-04-14 09:27:49,0.13,0.84,0.00,30.26,32.93,35.63,13.52,48.56,1010.70,2003.13,3032.35,2816.58,3237.29,599.99,578.45,5.65,0000 0000 0000 0000 000000
2018-04-14 09:32:50,0.15,0.84,0.00,30.26,32.95,35.65,13.49,48.64,1010.67,2003.01,3029.39,2814.56,3234.87,599.81,578.29,5.70,0000 0000 0000 0000 000000
2018-04-14 09:37:51,0.15,0.85,0.00,30.27,32.97,35.68,13.48,48.61,1010.54,2003.00,3026.50,2812.53,3232.45,600.21,578.56,5.75,0000 0000 0000 0000 000000
2018-04-14 09:42:53,0.15,0.86,0.00,30.26,32.97,35.69,13.52,48.87,1010.55,2003.00,3023.59,2810.47,3230.03,600.00,578.29,5.80,0000 0000 0000 0000 000000
2018-04-14 09:47:54,0.15,0.87,0.00,30.23,33.00,35.71,13.49,48.77,1010.59,2003.00,3020.65,2808.40,3227.57,599.86,578.28,5.85,0000 0000 0000 0000 000000
2018-04-14 09:52:55,0.15,0.88,0.00,30.18,33.00,35.73,13.44,48.71,1010.43,2002.99,3017.65,2806.32,3225.16,599.85,578.18,5.90,0000 0000 0000 0000 000000
2018-04-14 09:57:56,0.14,0.88,0.00,30.24,33.02,35.73,13.54,48.59,1010.71,2002.96,3014.77,2804.24,3222.80,600.40,578.89,5.95,0000 0000 0000 0000 000000
2018-04-14 10:02:58,0.15,0.89,0.00,30.29,33.03,35.76,13.49,48.49,1010.75,2002.89,3011.82,2802.11,3220.31,600.13,578.45,6.00,0000 0000 0000 0000 000000
2018-04-14 10:07:59,0.14,0.90,0.00,30.29,33.05,35.76,13.46,48.38,1010.74,2002.88,3008.92,2800.16,3217.95,599.92,578.32,6.05,0000 0000 0000 0000 000000
2018-04-14 10:13:00,0.14,0.91,0.00,30.35,33.06,35.77,13.48,48.35,1010.76,2002.71,3006.11,2798.03,3215.48,599.79,578.07,6.10,0000 0000 0000 0000 000000
2018-04-14 10:18:02,0.11,0.91,0.00,30.35,33.07,35.80,13.51,48.51,1010.76,2002.33,3003.19,2795.94,3213.07,599.85,578.09,6.15,0000 0000 0000 0000 000000
2018-04-14 10:23:03,0.14,0.92,0.00,30.29,33.09,35.81,13.58,48.52,1010.76,2002.15,3000.17,2793.84,3210.58,600.44,578.80,6.20,0000 0000 0000 0000 000000
2018-04-14 10:28:04,0.15,0.93,0.00,30.29,33.10,35.84,13.52,48.46,1010.77,2002.03,2997.14,2791.66,3208.04,600.23,578.60,6.25,0000 0000 0000 0000 000000
2018-04-14 10:33:05,0.15,0.94,0.00,30.32,33.12,35.86,13.39,48.45,1010.85,2002.01,2994.17,2789.57,3205.61,599.90,578.20,6.30,0000 0000 0000 0000 000000
2018-04-14 10:38:06,0.15,0.94,0.00,30.30,33.13,35.88,13.51,48.50,1010.86,2002.00,2991.23,2787.48,3203.16,600.30,578.59,6.35,0000 0000 0000 0000 000000
2018-04-14 10:43:07,0.16,0.95,0.00,30.26,33.15,35.88,13.54,48.44,1010.91,2002.00,2988.21,2785.35,3200.63,600.43,578.97,6.40,0000 0000 0000 0000 000000
2018-04-14 10:48:09,0.16,0.96,0.00,30.30,33.16,35.90,13.48,48.48,1010.87,2002.00,2985.17,2783.26,3198.28,599.86,578.23,6.45,0000 0000 0000 0000 000000
2018-04-14 10:53:10,0.15,0.97,0.00,30.30,33.17,35.92,13.42,48.44,1010.77,2002.00,2982.19,2781.12,3195.87,599.87,578.13,6.50,0000 0000 0000 0000 000000
2018-04-14 10:58:11,0.15,0.98,0.00,30.25,33.17,35.93,13.57,48.47,1010.77,2001.99,2979.19,2779.04,3193.49,600.22,578.74,6.55,0000 0000 0000 0000 000000
2018-04-14 11:03:13,0.15,0.98,0.00,30.24,33.19,35.95,13.55,48.58,1010.77,2001.96,2976.27,2776.96,3191.08,600.25,578.65,6.60,0000 0000 0000 0000 000000
2018-04-14 11:08:14,0.14,0.99,0.00,30.24,33.20,35.95,13.57,48.50,1010.77,2001.91,2973.34,2774.97,3188.69,600.19,578.57,6.66,0000 0000 0000 0000 000000
2018-04-14 11:13:15,0.15,1.00,0.00,30.20,33.20,35.96,13.53,48.52,1010.77,2001.88,2970.47,2772.93,3186.41,600.12,578.63,6.71,0000 0000 0000 0000 000000
2018-04-14 11:18:17,0.14,1.01,0.00,30.18,33.20,35.97,13.51,48.52,1010.77,2001.85,2967.59,2770.98,3184.17,599.78,578.49,6.76,0000 0000 0000 0000 000000
2018-04-14 11:23:18,0.14,1.01,0.00,30.21,33.20,35.99,13.53,48.42,1010.79,2001.81,2964.73,2769.00,3181.83,600.40,578.92,6.81,0000 0000 0000 0000 000000
2018-04-14 11:28:19,0.13,1.02,0.00,30.18,33.21,36.00,13.58,48.48,1010.82,2001.53,2961.78,2766.94,3179.46,600.41,578.96,6.86,0000 0000 0000 0000 000000
2018-04-14 11:33:20,0.13,1.03,0.00,30.16,33.22,36.00,13.37,48.43,1010.81,2001.42,2958.96,2764.97,3177.15,599.76,578.56,6.91,0000 0000 0000 0000 000000
2018-04-14 11:38:21,0.12,1.03,0.00,30.19,33.22,36.00,13.49,48.52,1010.84,2001.19,2956.03,2762.94,3174.78,599.75,578.42,6.96,0000 0000 0000 0000 000000
2018-04-14 11:43:23,0.15,1.04,0.00,30.15,33.22,36.02,13.65,48.62,1010.78,2001.12,2953.08,2760.92,3172.40,599.96,578.61,7.01,0000 0000 0000 0000 000000
2018-04-14 11:48:24,0.14,1.05,0.00,30.14,33.22,36.02,13.40,48.62,1010.77,2001.10,2950.20,2758.93,3170.17,599.71,578.38,7.06,0000 0000 0000 0000 000000
2018-04-14 11:53:25,0.15,1.06,0.00,30.14,33.22,36.05,13.57,48.64,1010.77,2001.05,2947.33,2756.98,3167.89,599.85,578.45,7.11,0000 0000 0000 0000 000000
2018-04-14 11:58:27,0.15,1.06,0.00,30.08,33.22,36.07,13.50,48.80,1010.77,2001.07,2944.49,2754.96,3165.53,599.86,578.45,7.16,0000 0000 0000 0000 000000
2018-04-14 12:03:28,0.15,1.07,0.00,30.05,33.21,36.16,13.54,48.74,1010.76,2001.05,2941.67,2753.03,3163.22,600.02,578.81,7.21,0000 0000 0000 0000 000000
2018-04-14 12:08:30,0.14,1.08,0.00,30.06,33.20,36.15,13.56,48.68,1010.76,2001.06,2938.78,2751.14,3160.93,600.25,578.88,7.26,0000 0000 0000 0000 000000
2018-04-14 12:13:31,0.14,1.09,0.00,30.04,33.20,36.15,13.64,48.67,1010.76,2001.06,2935.94,2749.26,3158.69,600.29,579.05,7.31,0000 0000 0000 0000 000000
2018-04-14 12:18:32,0.15,1.09,0.00,29.96,33.20,36.13,13.53,48.69,1010.76,2001.04,2933.08,2747.28,3156.39,600.15,579.10,7.36,0000 0000 0000 0000 000000
2018-04-14 12:23:34,0.14,1.10,0.00,29.97,33.20,36.11,13.51,48.61,1010.76,2001.05,2930.25,2745.36,3154.15,599.98,578.98,7.41,0000 0000 0000 0000 000000
2018-04-14 12:28:35,0.15,1.11,0.00,29.97,33.18,36.09,13.53,48.57,1010.76,2001.05,2927.44,2743.43,3151.98,599.64,578.62,7.46,0000 0000 0000 0000 000000
2018-04-14 12:33:36,0.15,1.12,0.00,29.92,33.17,36.07,13.58,48.71,1010.76,2001.08,2924.67,2741.53,3149.75,600.14,579.24,7.51,0000 0000 0000 0000 000000
2018-04-14 12:38:38,0.14,1.12,0.00,29.90,33.16,36.05,13.64,48.63,1010.75,2001.09,2921.87,2739.63,3147.57,600.48,579.56,7.56,0000 0000 0000 0000 000000
2018-04-14 12:43:39,0.15,1.13,0.00,29.90,33.15,36.03,13.51,48.64,1010.75,2001.12,2919.15,2737.76,3145.41,599.92,578.96,7.61,0000 0000 0000 0000 000000
2018-04-14 12:48:41,0.15,1.14,0.00,29.83,33.15,36.01,13.45,48.53,1010.75,2001.24,2916.36,2735.94,3143.23,599.88,579.08,7.66,0000 0000 0000 0000 000000
2018-04-14 12:53:42,0.16,1.15,0.00,29.82,33.13,35.99,13.60,48.32,1010.60,2001.38,2913.61,2734.01,3141.02,599.97,579.02,7.71,0000 0000 0000 0000 000000
2018-04-14 12:58:44,0.14,1.16,0.00,29.82,33.12,35.99,13.51,48.49,1010.31,2001.47,2910.87,2732.14,3138.89,599.85,578.91,7.76,0000 0000 0000 0000 000000